Location: Ar Ranvel
(48.3000°N, 4.8833°W)
Time: 11:37:08
(UTC+00:00)

COSMOS 2251 DEB - Pass Details

Date: 02 February 2022
Orbit: 754 x 1085 km, 74.1° (Epoch: 26 May)

Event Time Altitude Azimuth Distance (km) Brightness Sun altitude
Rises 18:17:54 0° 338° (NNW) 3,826 ? -9.9°
Reaches altitude 10° 18:20:32 10° 342° (NNW) 2,898 ? -10.3°
Maximum altitude 18:27:21 64° 63° (ENE) 1,199 ? -11.4°
Drops below altitude 10° 18:34:12 10° 144° (SE) 2,918 ? -12.5°
Sets 18:36:51 0° 148° (SSE) 3,854 ? -12.9°
